Location: Unspecified
(52.4292°N, 19.3359°E)
Time: 23:52:16
(UTC+02:00)

A-11 Canister half - Pass Details

Date: 21 May 2024
Orbit: 1515 x 1685 km, 47.2° (Epoch: 19 June)

Event Time Altitude Azimuth Distance (km) Brightness Sun altitude
Rises 03:30:53 0° 225° (SW) 4,754 - -8.3°
Exits shadow 03:33:54 - 220° (SW) 3,825 10.4 -8.0°
Reaches altitude 10° 03:34:09 10° 219° (SW) 3,749 10.3 -8.0°
Maximum altitude 03:42:53 44° 152° (SSE) 2,015 9.5 -7.1°
Drops below altitude 10° 03:51:26 10° 84° (E) 3,681 11.8 -6.2°
Sets 03:54:36 0° 78° (ENE) 4,661 12.6 -5.9°
